Portada
METAR-TAF:

METAR-TAF

Aeroports :

Ballina, Austràlia

latitud: 28-50-00S, longitud: 153-33-42E, altitud: 2 m

Observació

L'informe es va fer fa 54 minuts, a les 01:00 UTC
Vent 10 kt del Nord
Temperatura 26°C
Humitat 42%
Pressió 1018 hPa
Visibilitat 10 km o més

METAR: YBNA 010100Z AUTO 35010KT 9999 // NCD 26/12 Q1018

Hora: 11:54 (01:54 UTC)


TAF: manca

Observacions i pronòstics meteorològics de més de 4000 aeroports (METAR i TAF).

Les estacions disponibles són els punts grocs i vermells al mapa.

Posi el ratolí al punt desitjat per veure el nom de l'estació.

Feu clic per veure les observacions i els pronòstics meteorològics.

Per canviar el mapa: feu clic els botons verds amb una creu de color negre per apropar; al botó verd amb un guió per allunyar la imatge; o en les fletxes verdes per a mapes adjacents.


METAR-TAF: